User: anonymous   Login
Location: ActonStarParty
(42.4766°N, 71.4538°W)
Time: 22:42:59
(UTC-04:00)
Language:

ITAMSAT 1 - Orbit

View from above orbital plane
View from above orbital plane
View from above satellite
View from above satellite

Ground track
Ground track

The orbit data is extracted from the following two-line orbital elements,

1 22826U 93061D   17267.48780865 +.00000006 +00000-0 +19945-4 0  9996
2 22826 098.8185 234.4175 0009656 037.3016 322.8834 14.30336508251521
Epoch (UTC): 24 September 2017 11:42:26
Eccentricity: 0.0009656
inclination: 98.8185°
perigee height: 783 km
apogee height: 797 km
right ascension of ascending node: 234.4175°
argument of perigee: 37.3016°
revolutions per day: 14.30336508
mean anomaly at epoch: 322.8834°
orbit number at epoch: 25152

The dashed part of the orbit path shows where the satellite is in the earth's shadow,  

DLR